Het weer op Woensdrecht:2015/05/06 14:25 EHWO 061425Z AUTO 22014G25KT 9999 FEW031 SCT038 BKN044 13/08 Q1008 BLU
Het weer op Amsterdam:2015/05/06 13:55 EHAM 061355Z 21023G38KT 190V250 9999 -SHRA FEW020CB SCT045 10/07 Q1007 RETSRAGR NOSIG

Menu promotie
· De club
· Motor(zweefvliegen) bij de ACV
· De vloot
· Kennismaken met de ACV


Buien Radar


Inloggen voor leden
WelkomAnonymous!


Lid nummer    
Wachtwoord 
Code: Code
Type Code in
[Wachtwoord vergeten?]


Picasa foto link
ACV externe fotolink


 
Sorry, deze module is niet actief (acv_addon_4)

[ Ga terug ]
copyright (c) ACV 2006 - 2015

All logos and trademarks in this site are property of their respective owner. The comments are property of their posters, all the rest 2005 by me.
PHP-Nuke Copyright © 2005 by Francisco Burzi. This is free software, and you may redistribute it under the GPL. PHP-Nuke comes with absolutely no warranty, for details, see the license.
Pagina Rendering: 1.13 Seconden